GW4602 Weather Reports


time (UTC)temp
F
wind
direction
speed
knots
gust
knots
rain 1hr
in
rain 24hr
in
rain mn
in
humidity
%
barometer
mb
20260508102240 37 110 0.0 0.0 0.00 0.00 0.00 99 1020.3
20260508101737 37 108 0.0 0.0 0.00 0.00 0.00 99 1020.2
20260508101234 37 130 0.0 0.0 0.00 0.00 0.00 99 1020.1
20260508100732 37 117 0.0 0.0 0.00 0.00 0.00 99 1020.1
20260508100230 37 115 1.7 1.7 0.00 0.00 0.00 99 1020.1
20260508095725 37 106 0.0 0.9 0.00 0.00 0.00 99 1019.9
20260508095224 37 116 0.9 0.9 0.00 0.00 0.00 99 1019.9
20260508094720 37 116 0.0 0.0 0.00 0.00 0.00 99 1019.7
20260508094217 37 112 0.0 0.9 0.00 0.00 0.00 99 1019.8
20260508093714 37 121 0.0 0.0 0.00 0.00 0.00 99 1019.9
20260508093212 37 115 0.0 0.0 0.00 0.00 0.00 99 1019.7
20260508092708 37 113 0.0 0.0 0.00 0.00 0.00 99 1019.6
20260508092207 37 115 0.9 1.7 0.00 0.00 0.00 99 1019.9
20260508091704 37 104 0.0 1.7 0.00 0.00 0.00 99 1019.6
20260508091201 37 111 0.0 0.0 0.00 0.00 0.00 99 1019.4
20260508090659 37 121 0.0 0.0 0.00 0.00 0.00 99 1019.5
20260508090156 37 141 0.0 0.0 0.00 0.00 0.00 99 1019.3
20260508085652 37 118 0.0 0.0 0.00 0.00 0.00 99 1019.2
20260508085149 36 113 0.0 0.0 0.00 0.00 0.00 99 1019.4
20260508084645 36 123 0.0 1.7 0.00 0.00 0.00 99 1019.2
20260508084142 36 113 1.7 2.6 0.00 0.00 0.00 99 1019.1
20260508083640 36 136 0.0 0.0 0.00 0.00 0.00 99 1019.2
20260508083137 36 114 0.0 0.0 0.00 0.00 0.00 99 1019.2
20260508082632 36 125 0.0 0.0 0.00 0.00 0.00 99 1019.1
20260508082129 36 101 0.0 0.0 0.00 0.00 0.00 99 1019.2
20260508081627 36 112 0.0 0.9 0.00 0.00 0.00 99 1019.1
20260508081123 36 108 0.9 1.7 0.00 0.00 0.00 99 1019.3
20260508080621 36 121 0.0 0.0 0.00 0.00 0.00 99 1019.1
20260508080119 36 124 0.0 0.0 0.00 0.00 0.00 99 1019.2
20260508075615 36 119 0.0 0.0 0.00 0.00 0.00 99 1019.4
20260508075112 37 121 0.0 0.0 0.00 0.00 0.00 99 1019.4
20260508074610 37 118 0.0 0.0 0.00 0.00 0.00 99 1019.1
20260508074106 37 109 0.0 0.0 0.00 0.00 0.00 99 1019.1
20260508073604 37 125 0.0 0.0 0.00 0.00 0.00 99 1018.9
20260508073102 37 113 0.0 0.0 0.00 0.00 0.00 99 1018.9
20260508072556 37 103 0.0 0.9 0.00 0.00 0.00 99 1019.0
20260508072054 38 115 0.0 0.9 0.00 0.00 0.00 99 1018.9
20260508071552 38 117 0.0 0.0 0.00 0.00 0.00 99 1018.8
20260508071050 38 119 0.0 0.0 0.00 0.00 0.00 99 1018.8
20260508070547 39 134 0.0 0.0 0.00 0.00 0.00 99 1019.0
20260508070045 39 136 0.0 0.0 0.00 0.00 0.00 99 1018.8
20260508065542 39 125 0.0 0.0 0.00 0.00 0.00 99 1019.0
20260508065041 39 109 0.0 0.0 0.00 0.00 0.00 99 1019.0
20260508064538 39 108 0.0 0.0 0.00 0.00 0.00 99 1019.0
20260508064036 39 165 0.0 0.0 0.00 0.00 0.00 99 1019.1
20260508063532 38 116 0.0 0.0 0.00 0.00 0.00 99 1019.0
20260508063031 38 115 0.0 0.0 0.00 0.00 0.00 99 1019.2
20260508062528 38 175 0.0 0.0 0.00 0.00 0.00 99 1019.1
20260508062024 39 160 0.0 0.0 0.00 0.00 0.00 99 1019.1
20260508061522 39 118 0.0 0.0 0.00 0.00 0.00 99 1019.0
20260508061019 39 118 0.0 0.0 0.00 0.00 0.00 99 1018.9
20260508060511 39 118 0.0 0.0 0.00 0.00 0.00 99 1019.0
20260508060008 39 123 0.0 0.0 0.00 0.00 0.00 99 1018.9
20260508055504 38 164 0.0 0.0 0.00 0.00 0.00 99 1018.9
20260508055000 38 116 0.0 0.0 0.00 0.00 0.00 99 1018.9
20260508054457 37 162 0.0 0.0 0.00 0.00 0.00 99 1018.8
20260508053954 37 125 0.0 0.0 0.00 0.00 0.00 99 1018.8
20260508053451 36 152 0.0 0.0 0.00 0.00 0.00 99 1018.8
20260508052949 36 151 0.0 0.0 0.00 0.00 0.00 99 1018.9
20260508052446 36 151 0.0 0.0 0.00 0.00 0.00 99 1018.7
20260508051943 36 151 0.0 0.0 0.00 0.00 0.00 98 1018.7
20260508051438 36 151 0.0 0.0 0.00 0.00 0.00 98 1018.6
20260508050934 36 151 0.0 0.0 0.00 0.00 0.00 98 1018.7
20260508050431 37 151 0.0 0.0 0.00 0.00 0.00 98 1018.5
20260508045927 37 151 0.0 0.0 0.00 0.00 0.00 98 1018.5
20260508045425 37 151 0.0 0.0 0.00 0.00 0.00 98 1018.4
20260508044922 38 151 0.0 0.0 0.00 0.00 0.00 98 1018.3
20260508044419 38 151 0.0 0.0 0.00 0.00 0.00 98 1018.5
20260508043914 38 112 0.0 0.0 0.00 0.00 0.00 99 1018.3
20260508043411 38 122 0.0 0.0 0.00 0.00 0.00 99 1018.4
20260508042908 38 122 0.0 0.0 0.00 0.00 0.00 98 1018.4
20260508042400 39 122 0.0 0.0 0.00 0.00 0.00 98 1018.4
20260508041857 38 130 0.0 0.0 0.00 0.00 0.00 98 1018.4
20260508041353 39 130 0.0 0.0 0.00 0.00 0.00 98 1018.2
20260508040849 39 181 0.0 0.0 0.00 0.00 0.00 98 1018.4
20260508040347 39 162 0.0 0.0 0.00 0.00 0.00 98 1018.1
20260508035844 40 141 0.0 0.0 0.00 0.00 0.00 98 1018.1
20260508035342 40 191 0.0 0.0 0.00 0.00 0.00 98 1018.1
20260508034838 40 157 0.0 0.0 0.00 0.00 0.00 98 1018.0
20260508034335 40 166 0.0 0.0 0.00 0.00 0.00 97 1017.9
20260508033832 40 182 0.0 0.0 0.00 0.00 0.00 98 1017.9
20260508033331 40 148 0.0 0.0 0.00 0.00 0.00 97 1018.0
20260508032828 40 173 0.0 0.0 0.00 0.00 0.00 97 1018.0
20260508032325 40 144 0.0 0.0 0.00 0.00 0.00 96 1018.1
20260508031821 41 144 0.0 0.0 0.00 0.00 0.00 96 1018.0
20260508031318 41 159 0.0 0.0 0.00 0.00 0.00 96 1017.5
20260508030814 41 157 0.0 0.0 0.00 0.00 0.00 96 1017.6
20260508030312 41 163 0.0 0.0 0.00 0.00 0.00 96 1017.6
20260508025808 41 163 0.0 0.0 0.00 0.00 0.00 96 1017.5
20260508025306 42 163 0.0 0.0 0.00 0.00 0.00 95 1017.4
20260508024801 42 142 0.0 0.0 0.00 0.00 0.00 96 1017.4
20260508024258 42 143 0.0 0.0 0.00 0.00 0.00 95 1017.2
20260508023755 42 143 0.0 0.0 0.00 0.00 0.00 94 1017.3
20260508023253 43 72 0.0 0.0 0.00 0.00 0.00 94 1017.0
20260508022748 43 121 0.0 0.0 0.00 0.00 0.00 93 1017.0
20260508022245 43 89 0.0 0.9 0.00 0.00 0.00 93 1017.1
20260508021742 44 24 0.0 0.0 0.00 0.00 0.00 92 1016.9
20260508021238 44 24 0.0 0.0 0.00 0.00 0.00 91 1016.9
20260508020735 44 24 0.0 0.0 0.00 0.00 0.00 91 1016.8
20260508020232 45 158 0.0 0.9 0.00 0.00 0.00 91 1016.7
20260508015724 45 219 0.0 0.0 0.00 0.00 0.00 90 1016.5
20260508015221 45 158 0.0 0.9 0.00 0.00 0.00 90 1016.5
20260508014718 46 161 0.0 0.0 0.00 0.00 0.00 90 1016.6
20260508014215 46 161 0.0 0.0 0.00 0.00 0.00 89 1016.7
20260508013710 46 161 0.0 0.0 0.00 0.00 0.00 88 1016.4
20260508013206 47 160 0.0 0.0 0.00 0.00 0.00 88 1016.4
20260508012705 47 126 0.0 0.0 0.00 0.00 0.00 87 1016.2
20260508012201 47 198 0.0 0.9 0.00 0.00 0.00 88 1016.2
20260508011700 47 168 0.0 0.0 0.00 0.00 0.00 86 1016.3
20260508011157 47 168 0.0 0.0 0.00 0.00 0.00 85 1016.1
20260508010653 48 168 0.0 0.9 0.00 0.00 0.00 84 1016.1
20260508010151 48 208 0.0 0.0 0.00 0.00 0.00 84 1016.0
20260508005648 48 218 0.0 0.0 0.00 0.00 0.00 82 1015.9
20260508005145 49 238 0.0 0.0 0.00 0.00 0.00 80 1016.1
20260508004640 49 257 0.0 0.0 0.00 0.00 0.00 79 1016.0
20260508004137 50 273 0.0 0.0 0.00 0.00 0.00 75 1015.9
20260508003633 51 247 0.0 0.0 0.00 0.00 0.00 72 1015.7
20260508003131 51 247 0.0 0.0 0.00 0.00 0.00 71 1015.4
20260508002627 52 249 0.0 0.0 0.00 0.00 0.00 69 1015.3
20260508002125 53 248 0.0 0.0 0.00 0.00 0.00 68 1015.3
20260508001620 53 253 0.0 0.0 0.00 0.00 0.00 67 1015.2
20260508001116 54 253 0.0 0.0 0.00 0.00 0.00 68 1015.3
20260508000612 54 273 0.0 0.0 0.00 0.00 0.00 64 1015.4
20260508000110 55 312 0.0 0.0 0.00 0.00 0.00 64 1015.3
20260507235607 55 285 0.0 0.0 0.00 0.00 0.00 62 1015.2
20260507235104 56 280 0.0 0.0 0.00 0.00 0.00 58 1015.3
20260507234600 56 272 0.0 0.0 0.00 0.00 0.00 59 1015.1
20260507234057 56 309 1.7 1.7 0.00 0.00 0.00 56 1015.2
20260507233554 57 299 0.0 2.6 0.00 0.00 0.00 58 1015.0
20260507233053 57 314 0.0 1.7 0.00 0.00 0.00 56 1015.2
20260507232548 58 1 2.6 5.2 0.00 0.00 0.00 53 1015.2
20260507232046 58 336 1.7 3.5 0.00 0.00 0.00 54 1015.0
20260507231542 58 310 2.6 5.2 0.00 0.00 0.00 53 1015.2
20260507231040 58 310 2.6 5.2 0.00 0.00 0.00 52 1015.0
20260507230536 58 289 0.9 3.5 0.00 0.00 0.00 54 1015.0
20260507230033 59 310 7.8 7.8 0.00 0.00 0.00 52 1015.0
20260507225533 59 276 0.9 7.0 0.00 0.00 0.00 55 1014.8
20260507225029 59 313 4.3 7.0 0.00 0.00 0.00 54 1014.7
20260507224525 59 327 1.7 7.0 0.00 0.00 0.00 54 1014.7
20260507224022 60 330 4.3 7.0 0.00 0.00 0.00 55 1014.7
20260507223518 60 27 4.3 6.1 0.00 0.00 0.00 55 1014.7
20260507223015 59 279 1.7 6.1 0.00 0.00 0.00 54 1014.5
20260507222513 59 269 1.7 3.5 0.00 0.00 0.00 56 1014.6
20260507222008 59 264 0.9 2.6 0.00 0.00 0.00 55 1014.6
20260507221505 59 301 1.7 7.0 0.00 0.00 0.00 53 1014.6
20260507221002 59 295 0.9 2.6 0.00 0.00 0.00 55 1014.5
20260507220459 60 289 0.9 2.6 0.00 0.00 0.00 61 1014.5
20260507215956 59 293 1.7 2.6 0.00 0.00 0.00 55 1014.4
20260507215452 59 291 1.7 3.5 0.00 0.00 0.00 57 1014.3
20260507214950 60 311 2.6 3.5 0.00 0.00 0.00 59 1014.3
20260507214447 59 305 0.9 1.7 0.00 0.00 0.00 57 1014.2
20260507213943 59 313 0.9 1.7 0.00 0.00 0.00 59 1014.2
20260507213439 59 327 1.7 5.2 0.00 0.00 0.00 56 1014.3
20260507212936 59 307 2.6 3.5 0.00 0.00 0.00 55 1014.1
20260507212432 59 317 5.2 6.1 0.00 0.00 0.00 56 1014.2
20260507211929 60 318 1.7 7.0 0.00 0.00 0.00 55 1014.0
20260507211426 60 21 2.6 7.0 0.00 0.00 0.00 53 1013.9
20260507210923 62 310 3.5 7.8 0.00 0.00 0.00 53 1013.8
20260507210420 63 256 1.7 5.2 0.00 0.00 0.00 55 1013.9
20260507205916 61 283 0.9 5.2 0.00 0.00 0.00 57 1013.8
20260507205414 61 313 1.7 3.5 0.00 0.00 0.00 53 1013.8
20260507204909 62 306 0.9 2.6 0.00 0.00 0.00 54 1013.9
20260507204406 62 6 2.6 2.6 0.00 0.00 0.00 55 1014.1
20260507203904 61 280 3.5 3.5 0.00 0.00 0.00 54 1013.8
20260507203402 60 281 3.5 5.2 0.00 0.00 0.00 57 1014.0
20260507202858 61 340 4.3 7.0 0.00 0.00 0.00 54 1013.9
20260507202354 61 305 2.6 5.2 0.00 0.00 0.00 55 1014.2
20260507201850 61 335 1.7 2.6 0.00 0.00 0.00 55 1014.0
20260507201346 61 285 1.7 2.6 0.00 0.00 0.00 60 1014.1
20260507200842 59 345 2.6 5.2 0.00 0.00 0.00 63 1014.3
20260507200338 61 1 0.9 8.7 0.00 0.00 0.00 56 1014.3
20260507195834 61 311 3.5 5.2 0.00 0.00 0.00 61 1014.4
20260507195332 59 247 0.0 0.0 0.00 0.00 0.00 63 1014.3
20260507194829 58 340 1.7 2.6 0.00 0.00 0.00 65 1014.5
20260507194325 58 315 0.9 5.2 0.00 0.00 0.00 65 1014.2
20260507193822 58 315 1.7 3.5 0.00 0.00 0.00 64 1014.3
20260507193319 58 320 2.6 6.1 0.00 0.00 0.00 66 1014.4
20260507192814 58 326 4.3 6.1 0.00 0.00 0.00 63 1014.4
20260507192312 58 9 3.5 5.2 0.00 0.00 0.00 62 1014.4
20260507191808 59 286 0.9 6.1 0.00 0.00 0.00 63 1014.4
20260507191304 59 313 3.5 3.5 0.00 0.00 0.00 59 1014.4
20260507190801 59 5 1.7 8.7 0.00 0.00 0.00 60 1014.4
20260507190300 59 47 2.6 3.5 0.00 0.00 0.00 61 1014.5
20260507185758 60 10 3.5 6.1 0.00 0.00 0.00 62 1014.5
20260507185254 60 323 3.5 5.2 0.00 0.00 0.00 57 1014.6
20260507184752 60 330 0.9 1.7 0.00 0.00 0.00 56 1014.6
20260507184250 60 295 0.9 2.6 0.00 0.00 0.00 60 1014.7
20260507183747 61 311 0.0 2.6 0.00 0.00 0.00 58 1014.6
20260507183244 62 52 0.0 3.5 0.00 0.00 0.00 60 1014.8
20260507182742 61 30 2.6 3.5 0.00 0.00 0.00 61 1014.6
20260507182241 60 325 1.7 5.2 0.00 0.00 0.00 64 1014.5
20260507181739 59 298 3.5 6.1 0.00 0.00 0.00 59 1014.4
20260507181235 59 269 0.9 0.9 0.00 0.00 0.00 62 1014.5
20260507180732 58 285 0.0 5.2 0.00 0.00 0.00 63 1014.6
20260507180229 58 266 2.6 5.2 0.00 0.00 0.00 63 1014.5
20260507175724 58 300 0.0 0.9 0.00 0.00 0.00 64 1014.6
20260507175221 58 256 1.7 1.7 0.00 0.00 0.00 67 1014.8
20260507174719 58 263 0.9 3.5 0.00 0.00 0.00 68 1014.9
20260507174217 58 274 1.7 2.6 0.00 0.00 0.00 64 1014.7
20260507173714 59 313 0.9 1.7 0.00 0.00 0.00 67 1014.5
20260507173211 58 267 0.0 2.6 0.00 0.00 0.00 67 1014.7
20260507172707 58 338 0.9 1.7 0.00 0.00 0.00 64 1014.8
20260507172204 58 256 1.7 1.7 0.00 0.00 0.00 69 1014.8
20260507171704 58 308 0.9 1.7 0.00 0.00 0.00 65 1014.8
20260507171202 57 332 1.7 2.6 0.00 0.00 0.00 62 1014.8
20260507170659 58 317 3.5 6.1 0.00 0.00 0.00 63 1015.0
20260507170156 57 251 1.7 2.6 0.00 0.00 0.00 66 1015.0
20260507165651 58 327 3.5 6.1 0.00 0.00 0.00 65 1015.0
20260507165148 58 328 2.6 7.0 0.00 0.00 0.00 62 1014.8
20260507164644 58 328 4.3 6.1 0.00 0.00 0.00 65 1014.9
20260507164141 59 24 0.9 3.5 0.00 0.00 0.00 63 1015.0
20260507163638 59 311 0.9 0.9 0.00 0.00 0.00 64 1015.1
20260507163136 59 248 2.6 3.5 0.00 0.00 0.00 72 1015.3
20260507162631 59 305 0.9 1.7 0.00 0.00 0.00 66 1015.3
20260507162128 59 265 0.0 0.9 0.00 0.00 0.00 69 1015.2
20260507161624 59 294 0.0 1.7 0.00 0.00 0.00 67 1015.3
20260507161121 58 262 0.0 0.9 0.00 0.00 0.00 71 1015.3
20260507160617 58 42 0.0 1.7 0.00 0.00 0.00 69 1015.3
20260507160114 57 269 0.0 5.2 0.00 0.00 0.00 67 1015.7
20260507155609 57 333 0.9 0.9 0.00 0.00 0.00 70 1015.4
20260507155106 57 249 0.9 0.9 0.00 0.00 0.00 71 1015.3
20260507154603 57 286 0.9 0.9 0.00 0.00 0.00 70 1015.5
20260507154100 56 213 0.0 0.9 0.00 0.00 0.00 68 1015.5
20260507153557 56 238 2.6 3.5 0.00 0.00 0.00 73 1015.8
20260507153054 55 311 0.0 1.7 0.00 0.00 0.00 71 1015.5
20260507152550 55 7 0.0 0.9 0.00 0.00 0.00 70 1015.7
20260507152046 56 303 0.9 1.7 0.00 0.00 0.00 74 1015.8
20260507151542 56 35 1.7 1.7 0.00 0.00 0.00 74 1015.9
20260507151039 55 346 0.9 1.7 0.00 0.00 0.00 72 1015.9
20260507150536 55 290 0.9 1.7 0.00 0.00 0.00 74 1015.7
20260507150033 55 45 0.9 1.7 0.00 0.00 0.00 75 1015.8
20260507145527 54 241 0.0 1.7 0.00 0.00 0.00 80 1015.8
20260507145026 54 261 0.0 0.9 0.00 0.00 0.00 78 1016.0
20260507144522 54 324 0.9 1.7 0.00 0.00 0.00 79 1015.7
20260507144020 53 268 0.0 0.0 0.00 0.00 0.00 80 1016.0
20260507143517 53 301 0.0 1.7 0.00 0.00 0.00 81 1016.1
20260507143014 53 259 0.0 0.0 0.00 0.00 0.00 85 1015.7
20260507142509 53 262 0.0 0.0 0.00 0.00 0.00 85 1015.8
20260507142007 53 316 0.9 1.7 0.00 0.00 0.00 82 1016.0
20260507141502 53 288 0.0 0.9 0.00 0.00 0.00 82 1016.1
20260507140959 53 251 0.0 0.0 0.00 0.00 0.00 83 1016.0
20260507140456 52 247 0.0 0.0 0.00 0.00 0.00 83 1016.1
20260507135953 52 323 0.0 0.9 0.00 0.00 0.00 84 1016.0
20260507135450 52 305 0.0 0.0 0.00 0.00 0.00 84 1016.4
20260507134948 52 341 0.0 0.9 0.00 0.00 0.00 83 1016.2
20260507134444 52 359 0.0 0.0 0.00 0.00 0.00 84 1016.4
20260507133940 51 318 0.9 1.7 0.00 0.00 0.00 84 1016.3
20260507133436 51 340 0.0 0.0 0.00 0.00 0.00 86 1016.4
20260507132935 51 340 0.0 0.0 0.00 0.00 0.00 86 1016.5
20260507132430 51 340 0.0 0.0 0.00 0.00 0.00 87 1016.2
20260507131927 51 263 0.0 0.0 0.00 0.00 0.00 88 1016.5
20260507131424 51 281 0.0 0.0 0.00 0.00 0.00 88 1016.5
20260507130921 51 284 0.0 0.9 0.00 0.00 0.00 87 1016.5
20260507130418 51 289 0.0 0.9 0.00 0.00 0.00 87 1016.4
20260507125917 51 312 0.9 0.9 0.00 0.00 0.00 87 1016.5
20260507125415 51 315 0.0 0.0 0.00 0.00 0.00 87 1016.5
20260507124912 51 315 0.0 0.0 0.00 0.00 0.00 86 1016.5
20260507124408 51 306 0.0 0.9 0.00 0.00 0.00 85 1016.5
20260507123906 51 286 0.0 0.9 0.00 0.00 0.00 86 1016.6
20260507123403 51 278 0.0 0.0 0.00 0.00 0.00 87 1016.6
20260507122859 51 321 0.9 1.7 0.00 0.00 0.00 86 1016.3
20260507122355 51 296 0.0 0.0 0.00 0.00 0.00 87 1016.2
20260507121851 51 242 0.0 0.0 0.00 0.00 0.00 88 1016.3
20260507121347 51 266 0.0 0.0 0.00 0.00 0.00 86 1016.3
20260507120844 51 334 0.0 0.0 0.00 0.00 0.00 87 1016.2
20260507120340 51 348 0.0 0.0 0.00 0.00 0.00 86 1016.1
20260507115836 51 20 0.0 0.0 0.00 0.00 0.00 86 1016.0
20260507115332 51 325 0.0 1.7 0.00 0.00 0.00 85 1016.3
20260507114828 51 330 0.9 1.7 0.00 0.00 0.00 85 1016.2
20260507114325 51 6 0.0 0.0 0.00 0.00 0.00 86 1016.0
20260507113823 51 26 3.5 5.2 0.00 0.00 0.00 85 1016.0
20260507113319 51 41 0.0 0.0 0.00 0.00 0.00 89 1015.9
20260507112817 51 294 0.0 0.0 0.00 0.00 0.00 89 1016.2
20260507112314 51 255 0.0 0.0 0.00 0.00 0.00 90 1016.0
20260507111812 51 255 0.0 0.0 0.00 0.00 0.00 90 1015.8
20260507111308 51 257 0.9 0.9 0.00 0.00 0.00 89 1016.0
20260507110804 51 312 0.0 0.0 0.00 0.00 0.00 89 1015.7
20260507110301 51 313 0.0 0.9 0.00 0.00 0.00 90 1015.7
20260507105758 51 319 0.0 1.7 0.00 0.00 0.00 90 1015.5
20260507105254 51 241 0.0 0.0 0.00 0.00 0.00 92 1015.4
20260507104751 51 323 1.7 3.5 0.00 0.00 0.00 90 1015.5
20260507104248 51 279 0.0 1.7 0.00 0.00 0.00 92 1015.8
20260507103744 51 323 0.0 0.9 0.00 0.00 0.00 94 1015.5
20260507103240 51 334 1.7 1.7 0.00 0.00 0.00 95 1015.2
20260507102737 51 338 0.9 1.7 0.00 0.00 0.00 95 1015.3